Flag for Cameroon Weather past 2 weeks in Yaoundé, Cameroon

Now
72 °F

Fog.


Feels Like: 67 °F
Forecast: 68 / 85 °F
Wind: 1 mph from North

Location: Yaounde Airport

Current Time: Dec 19, 2014 at 9:00:08 AM

Latest Report: Dec 19, 2014 at 8:00 AM


Visibility: 0 mi

Pressure: 30.04 "Hg

Humidity: 94%

Dew point: 70 °F

Location of YaoundéLocation

Historic Weather in Yaoundé — Graph

°F

Yaoundé temperature yesterday

Maximum temperature yesterday: 84 °F (at 1:00 PM)
Minimum temperature yesterday: 68 °F (at 11:00 PM)
Average temperature yesterday: 75 °F

Past Weeks' High & Low Weather Summary

 TemperatureHumidityPressure
High88 °F (Dec 7, 3:00 PM)100% (Dec 8, 7:00 AM)30.07 "Hg (Dec 8, 7:00 AM)
Low66 °F (Dec 11, 10:00 PM)49% (Dec 4, 2:00 PM)29.86 "Hg (Dec 7, 4:00 PM)
Average76 °F81%29.97 "Hg
* Reported Dec 4 7:00 AM — Dec 19 7:00 AM, Yaoundé, Weather by CustomWeather, © 2014

Note: Actual official high and low records may vary slightly from our data, if they occured in-between our weather recording intervals... More about our weather records

Advertising

Yaoundé weather history for previous 24 hours

 ConditionsComfort  
Time TempWeatherWind HumidityBarometerVisibility
7:00 AM
Dec 19
68 °FFog.No wind94%30.01 "Hg1 mi
6:00 AM68 °FFog.No wind94%30.01 "Hg1 mi
5:00 AM70 °FFog.No wind94%30.01 "Hg2 mi
4:00 AM70 °FFog.2 mph94%30.01 "Hg2 mi
3:00 AM72 °FFog.1 mph88%29.98 "Hg2 mi
2:00 AM72 °FFog.5 mph94%29.98 "Hg2 mi
1:00 AM72 °FFog.2 mph94%29.98 "Hg2 mi
12:00 AM72 °FFog.1 mph94%30.01 "Hg2 mi
11:00 PM
Dec 18
68 °FFog.No wind100%30.01 "Hg2 mi
10:00 PM70 °FFog.No wind94%30.01 "Hg2 mi
9:00 PM70 °FHaze.No wind94%30.01 "Hg2 mi
8:00 PM72 °FHaze.No wind94%29.98 "Hg2 mi
7:00 PM73 °FPassing clouds.No wind89%29.95 "Hg2 mi
6:00 PM75 °FScattered clouds.No wind83%29.95 "Hg3 mi
5:00 PM79 °FThunderstorms. Scattered clouds.2 mph74%29.95 "Hg3 mi
4:00 PM77 °FThunderstorms. Partly sunny.1 mph74%29.95 "Hg3 mi
3:00 PM79 °FThunderstorms. Partly sunny.5 mph79%29.95 "Hg3 mi
2:00 PM82 °FPartly sunny.2 mph66%29.98 "Hg3 mi
1:00 PM84 °FPartly sunny.3 mph62%29.98 "Hg3 mi
12:00 PM82 °FPartly sunny.3 mph66%30.01 "Hg3 mi
11:00 AM81 °FPartly sunny.3 mph70%30.01 "Hg3 mi
10:00 AM79 °FFog.3 mph74%30.04 "Hg3 mi
9:00 AM75 °FFog.3 mph83%30.04 "Hg3 mi
Weather by CustomWeather, © 2014

See weather overviewHow to use our weather pages